1509170400.27,51818,8.94,72682.8,-9.37,-10.49,-10.41,0,*50
1509170401.54,51819,8.94,72660.5,-9.39,-10.67,-10.63,0,*53
1509170402.79,51820,8.94,72648.5,-9.39,-10.41,-10.27,0,*5D
1509170403.99,51821,8.94,72656.3,-9.39,-10.05,-9.97,0,*6F
1509170405.21,51822,8.94,72640.8,-9.39,-10.19,-10.19,0,*5F
1509170406.43,51823,8.94,72628.3,-9.39,-10.49,-10.49,0,*5E
1509170407.65,51824,8.94,72644.5,-9.39,-10.19,-10.19,0,*59
1509170408.85,51825,8.94,72654.3,-9.39,-9.93,-9.93,0,*58
1509170410.05,51826,8.94,72648.0,-9.39,-9.97,-9.93,0,*5F
1509170411.27,51827,8.94,72666.3,-9.39,-10.23,-10.19,0,*53
1509170412.48,51828,8.94,72676.5,-9.39,-10.23,-10.23,0,*55
1509170413.69,51829,8.94,72674.5,-9.39,-10.23,-10.23,0,*54
1509170414.92,51830,8.94,72650.3,-9.39,-10.27,-10.35,0,*5F
1509170416.15,51831,8.94,72660.3,-9.39,-10.53,-10.41,0,*5E
1509170417.36,51832,8.94,72676.3,-9.39,-10.05,-10.05,0,*5E
1509170418.56,51833,8.94,72682.5,-9.39,-9.97,-9.97,0,*5F
1509170419.77,51834,8.94,72690.0,-9.39,-10.23,-10.23,0,*58
1509170421.01,51835,8.94,72694.3,-9.41,-10.09,-10.09,0,*56
1509170422.21,51836,8.94,72692.0,-9.39,-9.93,-9.93,0,*5A
1509170423.43,51837,8.94,72686.0,-9.37,-9.93,-9.97,0,*51
1509170424.63,51838,8.94,72684.8,-9.39,-9.97,-9.97,0,*54
1509170425.85,51839,8.88,72688.5,-9.39,-10.27,-10.35,0,*56
1509170427.07,51840,8.94,72708.3,-9.39,-10.35,-10.27,0,*58
1509170428.32,51841,8.94,72674.8,-9.37,-10.49,-10.49,0,*54
1509170429.54,51842,8.94,72674.3,-9.39,-10.35,-10.27,0,*5A
1509170430.74,51843,8.94,72658.0,-9.39,-10.09,-10.09,0,*58
1509170431.95,51844,8.94,72644.5,-9.39,-10.53,-10.53,0,*5F
1509170433.17,51845,8.94,72638.8,-9.39,-10.27,-10.27,0,*5E
1509170434.42,51846,8.94,72652.8,-9.41,-10.31,-10.31,0,*52
1509170435.66,51847,8.94,72660.8,-9.41,-10.45,-10.45,0,*53
1509170436.91,51848,8.94,72666.8,-9.41,-10.31,-10.31,0,*5C
1509170438.16,51849,8.94,72680.8,-9.41,-10.23,-10.23,0,*5D
1509170439.4,51850,8.94,72676.8,-9.41,-10.27,-10.23,0,*51
1509170440.65,51851,8.94,72676.8,-9.41,-10.27,-10.31,0,*53
1509170441.89,51852,8.88,72664.0,-9.41,-10.27,-10.23,0,*53
1509170443.11,51853,8.94,72674.3,-9.43,-10.27,-10.23,0,*50
1509170444.33,51854,8.94,72690.5,-9.43,-10.23,-10.23,0,*53
1509170445.57,51855,8.94,72694.3,-9.41,-10.09,-10.15,0,*5D
1509170446.79,51856,8.94,72714.0,-9.43,-10.27,-10.27,0,*51
1509170448.04,51857,8.94,72706.0,-9.41,-10.27,-10.27,0,*52
1509170449.25,51858,8.94,72716.8,-9.39,-10.23,-10.23,0,*52
1509170450.47,51859,8.94,72712.0,-9.39,-10.23,-10.19,0,*5A
1509170451.69,51860,8.94,72714.8,-9.39,-10.23,-10.23,0,*59
1509170452.9,51861,8.94,72716.0,-9.39,-10.23,-10.23,0,*58
1509170454.15,51862,8.94,72708.5,-9.41,-10.27,-10.27,0,*54
1509170455.4,51863,8.94,72718.0,-9.41,-10.27,-10.31,0,*52
1509170456.64,51864,8.94,72704.8,-9.41,-10.23,-10.23,0,*52
1509170457.88,51865,8.94,72706.0,-9.41,-10.09,-10.01,0,*5B
1509170459.12,51866,8.94,72700.8,-9.41,-10.01,-9.97,0,*67
1509170460.37,51867,8.94,72696.0,-9.41,-10.01,-10.01,0,*51
1509170461.59,51868,8.94,72694.0,-9.41,-9.97,-9.97,0,*5E
1509170462.83,51869,8.94,72684.5,-9.37,-10.23,-10.23,0,*5E
1509170464.05,51870,8.94,72670.5,-9.39,-10.23,-10.23,0,*58
1509170465.26,51871,8.94,72686.5,-9.39,-10.09,-10.19,0,*58
1509170466.47,51872,8.94,72688.3,-9.39,-10.23,-10.09,0,*52
1509170467.71,51873,8.94,72686.5,-9.39,-10.53,-10.41,0,*58
1509170468.98,51874,8.94,72694.8,-9.39,-10.75,-10.67,0,*5F
1509170470.19,51875,8.94,72694.5,-9.39,-10.49,-10.53,0,*56
1509170471.47,51876,8.94,72700.5,-9.43,-10.67,-10.67,0,*53
1509170472.71,51877,8.94,72722.3,-9.41,-11.19,-11.11,0,*58
1509170473.93,51878,8.94,72716.5,-9.43,-11.11,-11.19,0,*55
1509170475.14,51879,8.94,72708.0,-9.43,-11.11,-11.11,0,*5C
1509170476.41,51880,8.94,72662.8,-9.45,-10.89,-10.75,0,*5F
1509170477.71,51881,8.94,72658.3,-9.45,-10.71,-10.63,0,*5E
1509170478.94,51882,8.94,72658.3,-9.49,-10.57,-10.57,0,*52
1509170480.15,51883,8.94,72648.0,-9.49,-10.85,-10.85,0,*53
1509170481.4,51884,8.94,72658.3,-9.45,-10.35,-10.31,0,*5C
1509170482.65,51885,8.94,72676.3,-9.45,-10.15,-10.19,0,*55
1509170483.9,51886,8.94,72672.8,-9.45,-10.27,-10.27,0,*5A
1509170485.15,51887,8.94,72668.8,-9.45,-10.31,-10.31,0,*5B
1509170486.39,51888,8.94,72664.0,-9.45,-10.31,-10.35,0,*50
1509170487.64,51889,8.94,72648.0,-9.45,-10.27,-10.27,0,*55
1509170488.89,51890,8.94,72642.8,-9.45,-10.19,-10.31,0,*57
1509170490.12,51891,8.94,72658.8,-9.45,-10.01,-9.89,0,*64
1509170491.34,51892,8.94,72672.8,-9.45,-9.93,-9.93,0,*5F
1509170492.57,51893,8.94,72686.0,-9.43,-10.27,-10.27,0,*58
1509170493.8,51894,8.94,72672.0,-9.43,-10.79,-10.85,0,*5C
1509170495.05,51895,8.94,72674.3,-9.45,-10.97,-11.01,0,*56
1509170496.28,51896,8.94,72656.8,-9.49,-10.89,-10.97,0,*58
1509170497.51,51897,8.94,72680.8,-9.49,-11.01,-11.01,0,*56
1509170498.81,51898,8.94,72674.0,-9.45,-10.75,-10.63,0,*52
1509170500.04,51899,8.94,72686.5,-9.49,-10.49,-10.57,0,*57
1509170501.29,51900,8.94,72686.8,-9.45,-10.35,-10.35,0,*55
1509170502.55,51901,8.94,72674.0,-9.45,-10.71,-10.85,0,*5F
1509170503.8,51902,8.94,72674.8,-9.45,-10.97,-10.97,0,*57
1509170505.03,51903,8.94,72680.8,-9.49,-10.89,-10.89,0,*5A
1509170506.31,51904,8.94,72676.8,-9.49,-10.71,-10.71,0,*5D
1509170507.54,51905,8.94,72676.8,-9.49,-10.89,-10.97,0,*53
1509170508.78,51906,8.94,72672.5,-9.49,-10.75,-10.85,0,*50
1509170510.08,51907,8.94,72674.8,-9.53,-10.67,-10.67,0,*55
1509170511.28,51908,8.94,72662.3,-9.51,-10.89,-10.89,0,*58
1509170512.51,51909,8.94,72664.3,-9.53,-10.89,-10.89,0,*5B
1509170513.8,51910,8.94,72654.0,-9.53,-10.67,-10.67,0,*53
1509170515.06,51911,8.94,72648.3,-9.53,-10.67,-10.53,0,*55
1509170516.26,51912,8.94,72662.0,-9.51,-10.53,-10.49,0,*58
1509170517.52,51913,8.94,72674.0,-9.53,-10.63,-10.53,0,*53
1509170518.78,51914,8.94,72676.0,-9.53,-10.49,-10.63,0,*5F
1509170519.98,51915,8.94,72670.5,-9.55,-10.53,-10.57,0,*54
1509170521.27,51916,8.94,72676.3,-9.53,-10.41,-10.41,0,*55
1509170522.47,51917,8.94,72676.0,-9.51,-10.31,-10.31,0,*56
1509170523.71,51918,8.94,72686.3,-9.53,-10.19,-10.09,0,*5A
1509170524.93,51919,8.94,72692.0,-9.53,-9.97,-10.05,0,*69
1509170526.14,51920,8.94,72696.5,-9.51,-9.93,-9.83,0,*53
1509170527.34,51921,8.94,72700.5,-9.51,-10.35,-10.31,0,*57
1509170528.54,51922,8.94,72696.5,-9.51,-10.53,-10.53,0,*50
1509170529.83,51923,8.94,72706.3,-9.53,-10.41,-10.41,0,*53
1509170531.04,51924,8.94,72702.0,-9.51,-10.35,-10.31,0,*52
1509170532.27,51925,8.94,72704.5,-9.51,-10.49,-10.41,0,*5F
1509170533.49,51926,8.94,72712.5,-9.51,-10.89,-10.79,0,*5B
1509170534.7,51927,8.94,72704.8,-9.51,-11.01,-10.93,0,*5F
1509170535.9,51928,8.94,72684.5,-9.51,-10.93,-10.93,0,*5A
1509170537.16,51929,8.94,72694.8,-9.51,-10.41,-10.41,0,*5B
1509170538.37,51930,8.94,72710.8,-9.51,-10.35,-10.31,0,*57
1509170539.58,51931,8.94,72708.8,-9.51,-10.35,-10.35,0,*52
1509170540.79,51932,8.94,72716.5,-9.51,-10.31,-10.31,0,*51
1509170541.99,51933,8.94,72698.0,-9.51,-10.31,-10.31,0,*50
1509170543.2,51934,8.94,72688.3,-9.51,-10.35,-10.31,0,*53
1509170544.41,51935,8.94,72684.8,-9.51,-10.31,-10.19,0,*5C
1509170545.62,51936,8.94,72660.3,-9.51,-10.35,-10.31,0,*51
1509170546.83,51937,8.94,72664.8,-9.51,-10.19,-10.19,0,*54
1509170548.02,51938,8.94,72686.8,-9.51,-10.05,-10.05,0,*5B
1509170549.26,51939,8.94,72696.5,-9.49,-10.15,-10.19,0,*5F
1509170550.48,51940,8.94,72704.0,-9.49,-9.93,-10.01,0,*6E
1509170551.71,51941,8.94,72712.8,-9.45,-9.93,-9.79,0,*54
1509170552.92,51942,8.94,72704.0,-9.49,-9.89,-9.75,0,*5C
1509170554.15,51943,8.94,72716.3,-9.45,-9.75,-9.75,0,*52
1509170555.37,51944,8.94,72710.8,-9.45,-9.67,-9.67,0,*55
1509170556.63,51945,8.94,72704.0,-9.45,-9.61,-9.67,0,*52
1509170557.88,51946,8.94,72696.5,-9.45,-9.67,-9.61,0,*51
1509170559.11,51947,8.94,72702.5,-9.45,-9.75,-9.67,0,*55
1509170560.36,51948,8.94,72706.5,-9.43,-9.61,-9.57,0,*5A
1509170561.57,51949,8.94,72718.3,-9.43,-9.75,-9.75,0,*5E
1509170562.79,51950,8.94,72720.5,-9.41,-9.97,-9.89,0,*5B
1509170564.01,51951,8.94,72730.8,-9.43,-10.15,-10.09,0,*5A
1509170565.24,51952,8.94,72732.0,-9.43,-10.23,-10.27,0,*50
1509170566.49,51953,8.94,72734.0,-9.41,-10.15,-10.15,0,*57
1509170567.71,51954,8.94,72732.3,-9.43,-10.27,-10.27,0,*52
1509170568.96,51955,8.94,72730.8,-9.41,-10.31,-10.31,0,*51
1509170570.23,51956,8.94,72738.0,-9.43,-10.41,-10.41,0,*50
1509170571.51,51957,8.94,72738.0,-9.41,-10.41,-10.53,0,*50
1509170572.72,51958,8.94,72734.8,-9.43,-10.53,-10.53,0,*5E
1509170573.97,51959,8.94,72722.8,-9.43,-10.67,-10.57,0,*5C
1509170575.19,51960,8.94,72696.0,-9.43,-10.31,-10.31,0,*55
1509170576.4,51961,8.94,72686.0,-9.43,-10.09,-10.09,0,*54
1509170577.63,51962,8.94,72706.0,-9.41,-10.09,-10.09,0,*55
1509170578.88,51963,8.94,72722.3,-9.41,-10.01,-10.01,0,*54
1509170580.08,51964,8.94,72686.0,-9.43,-9.97,-9.97,0,*51
1509170581.28,51965,8.94,72676.8,-9.43,-9.97,-9.97,0,*50
1509170582.49,51966,8.94,72686.0,-9.43,-9.75,-9.71,0,*57
1509170583.76,51967,8.94,72678.8,-9.41,-9.57,-9.57,0,*50
1509170585.04,51968,8.94,72658.8,-9.41,-9.49,-9.41,0,*57
1509170586.32,51969,8.94,72654.3,-9.41,-9.49,-9.41,0,*56
1509170587.61,51970,8.94,72670.3,-9.37,-9.45,-9.45,0,*57
1509170588.89,51971,8.94,72670.5,-9.37,-9.45,-9.45,0,*56
1509170590.18,51972,8.94,72662.3,-9.37,-9.45,-9.37,0,*50
1509170591.43,51973,8.94,72682.8,-9.35,-9.41,-9.41,0,*56
1509170592.66,51974,8.94,72686.0,-9.39,-9.83,-9.71,0,*50
1509170593.89,51975,8.88,72680.5,-9.37,-9.93,-9.93,0,*52
1509170595.12,51976,8.88,72694.3,-9.37,-9.79,-9.71,0,*59
1509170596.37,51977,8.94,72724.8,-9.37,-9.93,-9.83,0,*51
1509170597.61,51978,8.94,72716.5,-9.37,-9.97,-10.09,0,*60
1509170598.82,51979,8.94,72688.3,-9.39,-10.23,-10.23,0,*50
1509170600.03,51980,8.94,72698.3,-9.35,-10.05,-10.05,0,*5A
1509170601.25,51981,8.94,72702.8,-9.35,-10.01,-10.01,0,*5B
1509170602.46,51982,8.94,72698.8,-9.35,-10.01,-9.93,0,*6B
1509170603.68,51983,8.94,72710.0,-9.35,-10.19,-10.19,0,*59
1509170604.93,51984,8.94,72692.5,-9.37,-10.27,-10.35,0,*5F
1509170606.2,51985,8.94,72692.3,-9.39,-10.75,-10.75,0,*53
1509170607.49,51986,8.94,72694.8,-9.37,-10.79,-10.79,0,*5E
1509170608.77,51987,8.94,72702.3,-9.37,-11.01,-11.07,0,*59
1509170609.98,51988,8.94,72702.8,-9.39,-11.15,-11.15,0,*5E
1509170611.25,51989,8.94,72706.5,-9.41,-11.29,-11.19,0,*53
1509170612.47,51990,8.94,72708.0,-9.43,-11.11,-11.11,0,*5A
1509170613.71,51991,8.94,72704.5,-9.43,-11.11,-11.07,0,*5C
1509170614.96,51992,8.94,72726.8,-9.45,-11.01,-11.11,0,*5F
1509170616.2,51993,8.94,72730.3,-9.45,-11.01,-10.85,0,*52
1509170617.44,51994,8.94,72720.8,-9.45,-11.23,-11.11,0,*59
1509170618.67,51995,8.94,72712.0,-9.45,-10.85,-10.89,0,*55
1509170619.92,51996,8.94,72712.8,-9.45,-10.49,-10.49,0,*5A
1509170621.15,51997,8.88,72710.8,-9.49,-10.35,-10.35,0,*57
1509170622.39,51998,8.88,72710.8,-9.49,-10.27,-10.27,0,*58
1509170623.62,51999,8.94,72716.3,-9.49,-10.27,-10.27,0,*59
1509170624.87,52000,8.94,72698.8,-9.45,-10.35,-10.31,0,*5B
1509170626.1,52001,8.94,72698.8,-9.49,-10.35,-10.45,0,*55
1509170627.34,52002,8.94,72702.5,-9.45,-10.49,-10.57,0,*52
1509170628.58,52003,8.94,72706.8,-9.45,-10.49,-10.45,0,*50
1509170629.82,52004,8.88,72704.8,-9.45,-10.49,-10.57,0,*54
1509170631.1,52005,8.94,72706.8,-9.49,-10.71,-10.71,0,*56
1509170632.33,52006,8.94,72700.5,-9.49,-10.49,-10.57,0,*5A
1509170633.57,52007,8.94,72702.0,-9.45,-10.49,-10.57,0,*57
1509170634.81,52008,8.88,72702.5,-9.49,-10.35,-10.35,0,*5B
1509170636.04,52009,8.94,72688.8,-9.49,-10.27,-10.27,0,*5A
1509170637.25,52010,8.94,72694.3,-9.49,-9.89,-9.79,0,*5D
1509170638.52,52011,8.94,72704.3,-9.49,-9.53,-9.45,0,*54
1509170639.8,52012,8.94,72698.0,-9.45,-9.45,-9.45,0,*5C
1509170641.08,52013,8.94,72680.0,-9.45,-9.45,-9.45,0,*5D
1509170642.37,52014,8.94,72690.5,-9.41,-9.41,-9.41,0,*5E
1509170643.65,52015,8.94,72692.3,-9.41,-9.45,-9.41,0,*5B
1509170644.93,52016,8.94,72698.0,-9.41,-9.49,-9.49,0,*5C
1509170646.21,52017,8.88,72686.3,-9.41,-9.49,-9.49,0,*5D
1509170647.46,52018,8.88,72688.3,-9.39,-9.53,-9.45,0,*5A
1509170648.71,52019,8.94,72696.8,-9.39,-9.53,-9.53,0,*5C
1509170649.96,52020,8.94,72710.8,-9.39,-9.53,-9.53,0,*56
1509170651.24,52021,8.88,72702.3,-9.37,-9.57,-9.57,0,*59
1509170652.47,52022,8.94,72708.8,-9.37,-9.67,-9.67,0,*5A
1509170653.7,52023,8.94,72700.5,-9.37,-9.67,-9.67,0,*5B
1509170654.94,52024,8.88,72682.8,-9.37,-9.71,-9.67,0,*5B
1509170656.17,52025,8.94,72690.0,-9.37,-9.71,-9.71,0,*5D
1509170657.43,52026,8.94,72688.3,-9.37,-9.67,-9.53,0,*59
1509170658.69,52027,8.94,72688.8,-9.35,-9.49,-9.49,0,*5D
1509170659.94,52028,8.94,72682.5,-9.35,-9.49,-9.53,0,*59
1509170661.19,52029,8.94,72680.3,-9.35,-9.53,-9.49,0,*58
1509170662.47,52030,8.94,72684.3,-9.33,-9.49,-9.53,0,*56
1509170663.73,52031,8.94,72694.8,-9.35,-9.53,-9.61,0,*5B
1509170664.92,52032,8.94,72722.8,-9.35,-9.93,-9.89,0,*52
1509170666.17,52033,8.88,72700.3,-9.33,-10.15,-10.15,0,*5E
1509170667.41,52034,8.88,72698.0,-9.33,-10.45,-10.45,0,*59
1509170668.66,52035,8.94,72692.0,-9.35,-10.49,-10.63,0,*56
1509170669.87,52036,8.94,72688.8,-9.35,-10.45,-10.45,0,*5D
1509170671.12,52037,8.94,72688.3,-9.33,-10.23,-10.19,0,*53
1509170672.35,52038,8.94,72690.8,-9.35,-10.15,-10.15,0,*53
1509170673.57,52039,8.94,72662.8,-9.35,-10.19,-10.15,0,*5E
1509170674.8,52040,8.88,72666.3,-9.35,-10.35,-10.35,0,*5C
1509170676.05,52041,8.94,72664.0,-9.37,-10.19,-10.19,0,*5F
1509170677.28,52042,8.94,72640.0,-9.37,-9.97,-9.97,0,*5C
1509170678.56,52043,8.94,72680.0,-9.37,-9.83,-9.83,0,*5D
1509170679.83,52044,8.88,72672.8,-9.37,-9.83,-9.83,0,*5A
1509170681.04,52045,8.88,72682.8,-9.35,-9.75,-9.75,0,*59
1509170682.25,52046,8.94,72686.3,-9.35,-9.75,-9.79,0,*56
1509170683.5,52047,8.94,72690.0,-9.37,-9.83,-9.79,0,*5C
1509170684.73,52048,8.94,72674.5,-9.37,-9.97,-9.97,0,*56
1509170685.93,52049,8.94,72684.3,-9.35,-9.79,-9.89,0,*5A
1509170687.13,52050,8.94,72692.8,-9.35,-9.93,-9.93,0,*5D
1509170688.35,52051,8.94,72692.5,-9.35,-10.05,-10.01,0,*58
1509170689.56,52052,8.94,72698.3,-9.35,-10.05,-10.05,0,*5F
1509170690.76,52053,8.94,72716.0,-9.35,-10.05,-10.05,0,*5E
1509170691.99,52054,8.94,72728.5,-9.35,-10.35,-10.35,0,*59
1509170693.23,52055,8.94,72724.3,-9.37,-10.89,-10.89,0,*5A
1509170694.53,52056,8.94,72718.0,-9.37,-10.75,-10.75,0,*59
1509170695.8,52057,8.94,72714.3,-9.39,-10.63,-10.63,0,*56
1509170697.01,52058,8.88,72722.3,-9.39,-10.49,-10.49,0,*59
1509170698.23,52059,8.94,72716.5,-9.39,-10.93,-10.89,0,*53
1509170699.44,52060,8.94,72718.5,-9.39,-11.19,-11.19,0,*52
1509170700.67,52061,8.94,72738.8,-9.39,-11.33,-11.45,0,*52
1509170701.95,52062,8.94,72726.8,-9.41,-11.29,-11.23,0,*55
1509170703.19,52063,8.94,72708.3,-9.43,-10.93,-11.07,0,*50
1509170704.49,52064,8.94,72720.0,-9.45,-10.63,-10.63,0,*5D
1509170705.73,52065,8.94,72702.8,-9.45,-10.45,-10.57,0,*5F
1509170706.98,52066,8.94,72696.8,-9.45,-10.27,-10.31,0,*58
1509170708.22,52067,8.94,72700.0,-9.45,-10.27,-10.27,0,*5E
1509170709.46,52068,8.88,72704.5,-9.49,-10.27,-10.19,0,*50
1509170710.71,52069,8.94,72710.0,-9.41,-10.31,-10.27,0,*53
1509170711.96,52070,8.88,72714.0,-9.43,-10.31,-10.41,0,*59
1509170713.18,52071,8.94,72712.3,-9.43,-10.15,-10.15,0,*5F
1509170714.41,52072,8.88,72714.8,-9.43,-10.27,-10.27,0,*5C
1509170715.63,52073,8.94,72704.8,-9.43,-10.27,-10.27,0,*5D
1509170716.85,52074,8.94,72720.8,-9.43,-10.23,-10.23,0,*5A
1509170718.09,52075,8.94,72728.3,-9.41,-10.23,-10.27,0,*5D
1509170719.32,52076,8.94,72722.8,-9.43,-10.15,-10.15,0,*58
1509170720.53,52077,8.94,72740.0,-9.43,-10.01,-9.97,0,*6E
1509170721.76,52078,8.88,72750.8,-9.41,-10.01,-9.97,0,*63
1509170722.99,52079,8.94,72754.3,-9.43,-10.27,-10.15,0,*56
1509170724.24,52080,8.88,72724.8,-9.41,-10.23,-10.27,0,*57
1509170725.49,52081,8.94,72724.0,-9.41,-10.27,-10.27,0,*52
1509170726.7,52082,8.88,72698.5,-9.43,-10.09,-10.15,0,*5E
1509170727.95,52083,8.88,72712.8,-9.41,-10.27,-10.27,0,*50
1509170729.17,52084,8.88,72706.0,-9.43,-10.09,-10.01,0,*5D
1509170730.42,52085,8.94,72714.0,-9.43,-9.83,-9.83,0,*54
1509170731.7,52086,8.94,72714.5,-9.41,-9.49,-9.49,0,*55
1509170732.96,52087,8.94,72754.0,-9.39,-9.41,-9.37,0,*5A
1509170734.19,52088,8.94,72708.8,-9.37,-9.67,-9.67,0,*5A
1509170735.43,52089,8.94,72704.5,-9.39,-9.83,-9.83,0,*55
1509170736.66,52090,8.94,72714.5,-9.39,-9.67,-9.57,0,*5E
1509170737.93,52091,8.94,72716.0,-9.37,-9.57,-9.57,0,*52
1509170739.13,52092,8.88,72706.3,-9.39,-9.67,-9.67,0,*5F
1509170740.38,52093,8.88,72722.5,-9.37,-10.19,-10.23,0,*59
1509170741.62,52094,8.88,72728.0,-9.37,-10.23,-10.23,0,*57
1509170742.87,52095,8.88,72714.8,-9.37,-10.27,-10.27,0,*56
1509170744.14,52096,8.88,72714.3,-9.37,-10.41,-10.49,0,*5D
1509170745.37,52097,8.94,72712.8,-9.39,-10.53,-10.63,0,*59
1509170746.62,52098,8.88,72718.0,-9.39,-10.41,-10.35,0,*56
1509170747.89,52099,8.88,72716.3,-9.39,-10.63,-10.63,0,*54
1509170749.19,52100,8.88,72720.5,-9.41,-10.67,-10.71,0,*5D
1509170750.49,52101,8.94,72726.5,-9.41,-10.67,-10.71,0,*5C
1509170751.8,52102,8.88,72732.0,-9.41,-10.67,-10.67,0,*58
1509170753.07,52103,8.94,72722.3,-9.41,-10.57,-10.67,0,*5A
1509170754.34,52104,8.94,72706.8,-9.41,-10.57,-10.71,0,*5A
1509170755.62,52105,8.88,72660.8,-9.41,-10.67,-10.53,0,*58
1509170756.87,52106,8.94,72684.0,-9.41,-10.57,-10.57,0,*5C
1509170758.08,52107,8.88,72694.5,-9.43,-10.27,-10.23,0,*5B
1509170759.33,52108,8.94,72690.0,-9.43,-10.45,-10.41,0,*54
1509170760.57,52109,8.94,72678.5,-9.43,-10.45,-10.41,0,*55
1509170761.85,52110,8.94,72692.0,-9.43,-10.67,-10.79,0,*56
1509170763.1,52111,8.94,72682.8,-9.43,-10.31,-10.41,0,*5F
1509170764.35,52112,8.88,72690.0,-9.45,-10.35,-10.35,0,*5D
1509170765.59,52113,8.94,72694.5,-9.45,-10.45,-10.45,0,*5C
1509170766.83,52114,8.94,72700.8,-9.45,-10.45,-10.45,0,*5B
1509170768.07,52115,8.94,72700.5,-9.45,-10.31,-10.31,0,*5A
1509170769.29,52116,8.88,72694.5,-9.43,-10.09,-10.01,0,*57
1509170770.52,52117,8.88,72696.3,-9.41,-9.97,-9.89,0,*53
1509170771.79,52118,8.88,72700.0,-9.41,-9.83,-9.83,0,*53
1509170773.03,52119,8.88,72696.0,-9.43,-9.71,-9.61,0,*51
1509170774.25,52120,8.94,72708.8,-9.41,-9.97,-9.89,0,*57
1509170775.5,52121,8.88,72708.8,-9.41,-10.01,-10.01,0,*59
1509170776.7,52122,8.94,72714.0,-9.43,-9.97,-9.97,0,*58
1509170777.92,52123,8.88,72710.3,-9.43,-9.89,-9.83,0,*53
1509170779.16,52124,8.88,72708.5,-9.41,-10.01,-10.09,0,*54
1509170780.41,52125,8.94,72706.0,-9.41,-10.23,-10.15,0,*58
1509170781.65,52126,8.94,72692.8,-9.41,-10.01,-9.97,0,*69
1509170782.9,52127,8.94,72708.5,-9.41,-9.83,-9.75,0,*56
1509170784.18,52128,8.88,72690.0,-9.41,-9.83,-9.83,0,*50
1509170785.38,52129,8.94,72674.0,-9.39,-9.97,-9.93,0,*5A
1509170786.58,52130,8.94,72644.8,-9.39,-9.97,-9.93,0,*52
1509170787.78,52131,8.88,72690.8,-9.39,-9.79,-9.71,0,*5F
1509170788.99,52132,8.88,72680.3,-9.39,-9.71,-9.71,0,*54
1509170790.27,52133,8.94,72686.5,-9.37,-9.53,-9.53,0,*5B
1509170791.52,52134,8.94,72688.3,-9.39,-9.45,-9.41,0,*56
1509170792.81,52135,8.88,72692.8,-9.37,-9.45,-9.45,0,*5D
1509170794.07,52136,8.88,72706.3,-9.35,-9.41,-9.41,0,*5C
1509170795.32,52137,8.94,72686.0,-9.35,-9.41,-9.41,0,*5D
1509170796.59,52138,8.88,72686.8,-9.35,-9.41,-9.37,0,*53
1509170797.87,52139,8.88,72674.3,-9.33,-9.41,-9.37,0,*54
1509170799.13,52140,8.88,72686.3,-9.35,-9.41,-9.37,0,*5C
1509170800.41,52141,8.88,72692.5,-9.33,-9.41,-9.41,0,*5A
1509170801.7,52142,8.88,72684.8,-9.33,-9.41,-9.41,0,*59
1509170802.98,52143,8.94,72692.3,-9.33,-9.49,-9.41,0,*50
1509170804.26,52144,8.94,72718.0,-9.29,-9.37,-9.37,0,*54
1509170805.5,52145,8.88,72724.3,-9.31,-9.37,-9.27,0,*5D
1509170806.7,52146,8.88,72730.5,-9.31,-9.31,-9.31,0,*5F
1509170807.9,52147,8.94,72724.0,-9.31,-9.31,-9.27,0,*59
1509170809.14,52148,8.94,72722.3,-9.29,-9.27,-9.27,0,*58
1509170810.37,52149,8.94,72728.8,-9.29,-9.27,-9.19,0,*54
1509170811.6,52150,8.94,72722.0,-9.29,-9.31,-9.31,0,*51
1509170812.8,52151,8.94,72718.8,-9.27,-9.31,-9.23,0,*5D
1509170814.04,52152,8.94,72674.0,-9.27,-9.57,-9.57,0,*5D
1509170815.3,52153,8.94,72710.8,-9.23,-9.41,-9.41,0,*58
1509170816.55,52154,8.88,72714.5,-9.27,-9.41,-9.41,0,*5B
1509170817.81,52155,8.94,72696.3,-9.27,-9.41,-9.41,0,*5A
1509170819.01,52156,8.88,72700.0,-9.23,-9.31,-9.27,0,*5A
1509170820.21,52157,8.88,72706.0,-9.23,-9.31,-9.27,0,*5B
1509170821.41,52158,8.88,72714.8,-9.27,-9.31,-9.31,0,*57
1509170822.61,52159,8.88,72724.8,-9.23,-9.31,-9.31,0,*52
1509170823.86,52160,8.88,72730.3,-9.23,-9.41,-9.41,0,*58
1509170825.14,52161,8.88,72728.5,-9.21,-9.41,-9.37,0,*5A
1509170826.35,52162,8.94,72740.3,-9.23,-9.71,-9.71,0,*5A
1509170827.58,52163,8.88,72740.0,-9.21,-9.67,-9.75,0,*5A
1509170828.82,52164,8.88,72742.3,-9.21,-10.19,-10.23,0,*57
1509170830.06,52165,8.88,72728.8,-9.21,-10.49,-10.49,0,*5F
1509170831.3,52166,8.94,72718.0,-9.23,-10.49,-10.41,0,*56
1509170832.55,52167,8.94,72718.8,-9.27,-10.41,-10.27,0,*5B
1509170833.8,52168,8.94,72716.3,-9.27,-10.41,-10.27,0,*54
1509170835.01,52169,8.88,72706.8,-9.27,-10.09,-10.15,0,*58
1509170836.21,52170,8.94,72704.3,-9.27,-9.93,-9.93,0,*5D
1509170837.42,52171,8.88,72696.8,-9.27,-10.09,-10.09,0,*5C
1509170838.63,52172,8.88,72702.8,-9.27,-10.05,-9.97,0,*6C
1509170839.88,52173,8.94,72702.8,-9.29,-10.15,-10.15,0,*50
1509170841.09,52174,8.88,72698.8,-9.31,-10.09,-10.15,0,*53
1509170842.3,52175,8.88,72688.5,-9.27,-10.09,-10.05,0,*54
1509170843.52,52176,8.94,72690.5,-9.27,-10.15,-10.09,0,*56
1509170844.77,52177,8.94,72676.3,-9.29,-10.19,-10.09,0,*55
1509170846.02,52178,8.94,72668.3,-9.29,-10.19,-10.19,0,*5B
1509170847.26,52179,8.88,72666.3,-9.31,-10.41,-10.45,0,*57
1509170848.51,52180,8.94,72670.3,-9.31,-10.57,-10.67,0,*56
1509170849.73,52181,8.94,72700.0,-9.31,-10.45,-10.45,0,*54
1509170850.95,52182,8.88,72696.3,-9.31,-10.27,-10.31,0,*50
1509170852.17,52183,8.88,72698.3,-9.31,-10.15,-10.09,0,*5B
1509170853.39,52184,8.88,72678.8,-9.31,-10.15,-10.15,0,*51
1509170854.64,52185,8.88,72676.0,-9.33,-10.15,-10.15,0,*52
1509170855.87,52186,8.88,72680.5,-9.33,-9.93,-9.89,0,*5A
1509170857.09,52187,8.88,72684.3,-9.33,-9.93,-9.89,0,*5B
1509170858.29,52188,8.88,72700.0,-9.31,-9.89,-9.75,0,*5E
1509170859.48,52189,8.94,72710.5,-9.31,-9.89,-9.89,0,*5C
1509170860.71,52190,8.88,72710.5,-9.31,-10.15,-10.15,0,*54
1509170861.93,52191,8.88,72708.3,-9.31,-10.27,-10.31,0,*52
1509170863.15,52192,8.94,72702.3,-9.31,-10.19,-10.27,0,*5B
1509170864.38,52193,8.88,72688.5,-9.31,-10.27,-10.27,0,*57
1509170865.6,52194,8.88,72688.3,-9.31,-10.19,-10.19,0,*50
1509170866.82,52195,8.94,72682.5,-9.31,-10.15,-10.09,0,*5C
1509170868.06,52196,8.88,72660.8,-9.33,-10.01,-10.15,0,*55
1509170869.32,52197,8.88,72644.8,-9.33,-10.19,-10.19,0,*51
1509170870.56,52198,8.88,72682.8,-9.33,-10.15,-10.05,0,*5F
1509170871.78,52199,8.88,72690.8,-9.33,-9.93,-9.89,0,*54
1509170873.01,52200,8.88,72670.5,-9.33,-10.05,-10.05,0,*5C
1509170874.26,52201,8.88,72652.0,-9.33,-10.15,-10.19,0,*51
1509170875.5,52202,8.88,72624.0,-9.33,-10.05,-10.01,0,*5A
1509170876.72,52203,8.88,72576.8,-9.35,-10.01,-10.01,0,*59
1509170877.96,52204,8.88,72686.5,-9.33,-10.15,-10.05,0,*59
1509170879.2,52205,8.88,72710.0,-9.33,-10.05,-10.05,0,*59
1509170880.42,52206,8.88,72716.8,-9.33,-9.93,-9.89,0,*51
1509170881.65,52207,8.88,72660.8,-9.33,-9.93,-9.93,0,*5B
1509170882.87,52208,8.88,72654.0,-9.33,-9.89,-9.89,0,*54
1509170884.09,52209,8.88,72672.0,-9.33,-9.89,-9.89,0,*55
1509170885.32,52210,8.88,72676.0,-9.33,-9.79,-9.79,0,*5D
1509170886.55,52211,8.88,72676.5,-9.33,-9.79,-9.75,0,*50
1509170887.78,52212,8.88,72684.5,-9.29,-9.75,-9.75,0,*54
1509170889.01,52213,8.88,72660.8,-9.31,-9.83,-9.89,0,*56
1509170890.22,52214,8.88,72664.0,-9.31,-10.09,-10.01,0,*53
1509170891.44,52215,8.88,72658.8,-9.31,-10.15,-10.09,0,*57
1509170892.67,52216,8.88,72678.5,-9.33,-10.05,-9.97,0,*68
1509170893.91,52217,8.88,72684.3,-9.33,-10.23,-10.23,0,*5A
1509170895.16,52218,8.88,72666.0,-9.31,-10.41,-10.27,0,*57
1509170896.38,52219,8.88,72672.8,-9.31,-10.31,-10.27,0,*51
1509170897.6,52220,8.88,72664.5,-9.31,-10.27,-10.27,0,*5C
1509170898.85,52221,8.88,72656.8,-9.33,-10.31,-10.31,0,*5F
1509170900.09,52222,8.88,72668.5,-9.33,-10.19,-10.23,0,*55
1509170901.32,52223,8.88,72678.5,-9.35,-10.15,-10.19,0,*57
1509170902.57,52224,8.88,72688.0,-9.33,-10.19,-10.15,0,*56
1509170903.81,52225,8.88,72684.5,-9.33,-10.05,-10.01,0,*5F
1509170905.03,52226,8.88,72684.0,-9.33,-9.89,-9.89,0,*58
1509170906.25,52227,8.88,72696.3,-9.31,-9.83,-9.71,0,*56
1509170907.5,52228,8.88,72702.0,-9.31,-9.57,-9.61,0,*51
1509170908.75,52229,8.88,72694.3,-9.31,-9.61,-9.61,0,*55